Date String (YYYY-MM-DD hh:mm:ss) UTC,Instrument flags,absolute air pressure of the measurement (hPa),sample flow rate (lpm),inlet stack bypass flow (lpm),air temperature of the measurement (°C),ambient temperature measured by the external sensor (°C),aerosol sample conditioner tube jacket temperature (°C),OPC LED temperature (°C),internal box temperature (°C),relative humidity of the measurement (%),span deviation,mass concentration of particles derived from Lorenz-Mie calculation of OPC scattering (μg/m³),mass concentration of particles derived from Lorenz-Mie calculation of OPC scattering (μg/m³),mass concentration of particles derived from Lorenz-Mie calculation of OPC scattering (μg/m³)
DateTimeUTC,F1_M11,P_M11,Q1_M11,Q2_M11,T1_M11,T2_M11,T3_M11,T4_M11,T5_M11,U1_M11,ZSPAN_M11,X0_M11,X2_M11,X1_M11
2024-03-31 06:00:00,SystemResetWarning,0819.5,5.02,000.00,024.1,023.2,000.0,032.8,026.0,18.6,0000.0,0011.30,0003.66,0003.15
2024-03-31 06:01:00,SystemResetWarning,0819.5,5.01,000.00,024.1,023.2,000.0,032.8,026.0,18.6,0000.0,0011.88,0003.69,0003.16
2024-03-31 06:02:00,SystemResetWarning,0819.5,4.99,000.00,024.1,023.2,000.0,032.8,026.0,18.5,0000.0,0011.52,0003.70,0003.17
2024-03-31 06:03:00,SystemResetWarning,0819.5,4.99,000.00,024.1,023.2,000.0,032.8,026.0,18.6,0000.0,0011.60,0003.73,0003.16
2024-03-31 06:04:00,SystemResetWarning,0819.6,5.00,000.00,024.1,023.2,000.0,032.8,026.0,18.5,0000.0,0011.36,0003.71,0003.14
2024-03-31 06:05:00,SystemResetWarning,0819.5,5.02,000.00,024.1,023.2,000.0,032.8,026.0,18.6,0000.0,0011.21,0003.70,0003.12
2024-03-31 06:06:00,SystemResetWarning,0819.5,5.00,000.00,024.1,023.2,000.0,032.8,026.0,18.7,0000.0,0011.29,0003.72,0003.11
2024-03-31 06:07:00,SystemResetWarning,0819.9,4.99,000.00,024.1,023.2,000.0,032.8,026.0,18.8,0000.0,0010.93,0003.74,0003.09
2024-03-31 06:08:00,SystemResetWarning,0819.9,4.99,000.00,024.1,023.2,000.0,032.8,025.9,18.7,0000.0,0010.45,0003.74,0003.06
2024-03-31 06:09:00,SystemResetWarning,0819.7,4.99,000.00,024.1,023.2,000.0,032.8,026.0,18.8,0000.0,0011.23,0003.75,0003.04
2024-03-31 06:10:00,SystemResetWarning,0819.8,5.02,000.00,024.1,023.2,000.0,032.8,025.9,18.8,0000.0,0011.13,0003.77,0003.03
2024-03-31 06:11:00,SystemResetWarning,0819.7,4.99,000.00,024.1,023.2,000.0,032.8,025.9,18.8,0000.0,0010.27,0003.72,0003.00
2024-03-31 06:12:00,SystemResetWarning,0819.6,4.99,000.00,024.0,023.2,000.0,032.7,025.9,18.8,0000.0,0009.50,0003.65,0002.94
2024-03-31 06:13:00,SystemResetWarning,0819.9,5.00,000.00,024.0,023.2,000.0,032.7,025.9,18.9,0000.0,0009.48,0003.62,0002.90
2024-03-31 06:14:00,SystemResetWarning,0819.6,5.02,000.00,024.0,023.1,000.0,032.7,025.9,18.8,0000.0,0010.07,0003.55,0002.87
2024-03-31 06:15:00,SystemResetWarning,0819.7,5.00,000.00,024.0,023.1,000.0,032.7,025.9,18.8,0000.0,0009.95,0003.54,0002.85
2024-03-31 06:16:00,SystemResetWarning,0819.8,4.99,000.00,024.0,023.1,000.0,032.7,025.9,18.8,0000.0,0009.90,0003.54,0002.84
2024-03-31 06:17:00,SystemResetWarning,0819.7,5.00,000.00,024.0,023.1,000.0,032.7,025.9,18.9,0000.0,0009.62,0003.49,0002.82
2024-03-31 06:18:00,SystemResetWarning,0819.7,4.99,000.00,024.0,023.1,000.0,032.7,025.9,18.9,0000.0,0010.15,0003.46,0002.82
2024-03-31 06:19:00,SystemResetWarning,0820.0,5.00,000.00,024.0,023.1,000.0,032.7,025.9,19.0,0000.0,0010.19,0003.41,0002.79
2024-03-31 06:20:00,SystemResetWarning,0819.9,5.01,000.00,024.0,023.1,000.0,032.7,025.9,19.1,0000.0,0009.20,0003.39,0002.77
2024-03-31 06:21:00,SystemResetWarning,0819.8,5.01,000.00,024.0,023.1,000.0,032.7,025.9,19.1,0000.0,0009.26,0003.37,0002.74
2024-03-31 06:22:00,SystemResetWarning,0819.7,5.00,000.00,024.0,023.1,000.0,032.7,025.9,19.1,0000.0,0009.37,0003.39,0002.73
2024-03-31 06:23:00,SystemResetWarning,0819.8,4.99,000.00,024.0,023.1,000.0,032.7,025.9,19.1,0000.0,0009.54,0003.43,0002.72
2024-03-31 06:24:00,SystemResetWarning,0819.9,4.99,000.00,024.0,023.1,000.0,032.7,025.9,19.1,0000.0,0009.24,0003.41,0002.71
2024-03-31 06:25:00,SystemResetWarning,0820.3,5.01,000.00,024.0,023.1,000.0,032.6,025.9,19.1,0000.0,0009.06,0003.40,0002.69
2024-03-31 06:26:00,SystemResetWarning,0820.2,5.01,000.00,024.0,023.1,000.0,032.6,025.9,19.1,0000.0,0008.88,0003.39,0002.66
2024-03-31 06:27:00,SystemResetWarning,0820.1,5.00,000.00,024.0,023.1,000.0,032.6,025.8,19.2,0000.0,0009.28,0003.37,0002.64
2024-03-31 06:28:00,SystemResetWarning,0820.1,4.99,000.00,023.9,023.1,000.0,032.6,025.8,19.2,0000.0,0009.68,0003.38,0002.63
2024-03-31 06:29:00,SystemResetWarning,0820.0,4.99,000.00,023.9,023.1,000.0,032.6,025.8,19.2,0000.0,0009.41,0003.36,0002.60
2024-03-31 06:30:00,SystemResetWarning,0819.8,4.99,000.00,023.9,023.1,000.0,032.6,025.8,19.2,0000.0,0009.07,0003.38,0002.59
2024-03-31 06:31:00,SystemResetWarning,0819.8,5.00,000.00,023.9,023.1,000.0,032.6,025.7,19.2,0000.0,0009.08,0003.38,0002.57
2024-03-31 06:32:00,SystemResetWarning,0819.8,5.00,000.00,023.9,023.1,000.0,032.6,025.7,19.3,0000.0,0009.50,0003.37,0002.56
2024-03-31 06:33:00,SystemResetWarning,0819.8,5.00,000.00,023.9,023.1,000.0,032.6,025.7,19.3,0000.0,0009.94,0003.35,0002.56
2024-03-31 06:34:00,SystemResetWarning,0819.8,5.00,000.00,023.9,023.1,000.0,032.6,025.7,19.3,0000.0,0010.09,0003.36,0002.55
2024-03-31 06:35:00,SystemResetWarning,0819.7,5.00,000.00,023.9,023.1,000.0,032.6,025.7,19.3,0000.0,0010.38,0003.39,0002.53
2024-03-31 06:36:00,SystemResetWarning,0819.7,5.01,000.00,023.9,023.1,000.0,032.6,025.7,19.3,0000.0,0010.15,0003.42,0002.53
2024-03-31 06:37:00,SystemResetWarning,0819.8,5.01,000.00,023.9,023.1,000.0,032.6,025.7,19.4,0000.0,0009.84,0003.41,0002.53
2024-03-31 06:38:00,SystemResetWarning,0819.7,5.00,000.00,023.9,023.1,000.0,032.6,025.7,19.4,0000.0,0010.01,0003.45,0002.54
2024-03-31 06:39:00,SystemResetWarning,0819.7,5.00,000.00,023.9,023.1,000.0,032.6,025.7,19.4,0000.0,0010.15,0003.49,0002.55
2024-03-31 06:40:00,SystemResetWarning,0819.7,5.00,000.00,023.9,023.1,000.0,032.6,025.7,19.4,0000.0,0010.06,0003.51,0002.55
2024-03-31 06:41:00,SystemResetWarning,0819.7,5.00,000.00,023.9,023.1,000.0,032.5,025.7,19.4,0000.0,0010.60,0003.50,0002.56
2024-03-31 06:42:00,SystemResetWarning,0819.8,5.00,000.00,023.9,023.1,000.0,032.5,025.7,19.5,0000.0,0010.71,0003.49,0002.57
2024-03-31 06:43:00,SystemResetWarning,0819.9,5.00,000.00,023.9,023.1,000.0,032.5,025.7,19.5,0000.0,0010.60,0003.52,0002.57
2024-03-31 06:44:00,SystemResetWarning,0819.8,5.00,000.00,023.9,023.0,000.0,032.5,025.7,19.4,0000.0,0010.74,0003.51,0002.56
2024-03-31 06:45:00,SystemResetWarning,0819.7,5.00,000.00,023.8,023.0,000.0,032.5,025.7,19.4,0000.0,0010.83,0003.52,0002.57
2024-03-31 06:46:00,SystemResetWarning,0820.2,5.01,000.00,023.9,023.0,000.0,032.5,025.7,19.4,0000.0,0010.96,0003.52,0002.58
2024-03-31 06:47:00,SystemResetWarning,0820.2,5.01,000.00,023.8,023.0,000.0,032.5,025.7,19.4,0000.0,0011.62,0003.48,0002.57
2024-03-31 06:48:00,SystemResetWarning,0820.2,4.99,000.00,023.8,023.0,000.0,032.5,025.7,19.4,0000.0,0012.72,0003.48,0002.57
2024-03-31 06:49:00,SystemResetWarning,0819.9,4.99,000.00,023.8,023.0,000.0,032.5,025.7,19.4,0000.0,0012.25,0003.46,0002.57
2024-03-31 06:50:00,SystemResetWarning,0820.0,5.01,000.00,023.8,023.0,000.0,032.5,025.7,19.4,0000.0,0012.78,0003.48,0002.57
2024-03-31 06:51:00,SystemResetWarning,0819.7,5.00,000.00,023.8,023.0,000.0,032.5,025.6,19.5,0000.0,0013.09,0003.49,0002.58
2024-03-31 06:52:00,SystemResetWarning,0819.8,5.00,000.00,023.8,023.0,000.0,032.5,025.6,19.5,0000.0,0012.69,0003.53,0002.60
2024-03-31 06:53:00,SystemResetWarning,0819.7,5.00,000.00,023.8,023.0,000.0,032.5,025.6,19.5,0000.0,0013.05,0003.54,0002.60
2024-03-31 06:54:00,SystemResetWarning,0819.8,5.00,000.00,023.8,023.0,000.0,032.5,025.6,19.6,0000.0,0013.01,0003.53,0002.60
2024-03-31 06:55:00,SystemResetWarning,0820.1,5.01,000.00,023.8,022.9,000.0,032.5,025.6,19.6,0000.0,0012.98,0003.56,0002.62
2024-03-31 06:56:00,SystemResetWarning,0820.2,5.00,000.00,023.8,022.9,000.0,032.5,025.6,19.6,0000.0,0012.60,0003.54,0002.61
2024-03-31 06:57:00,SystemResetWarning,0820.2,4.99,000.00,023.8,022.9,000.0,032.5,025.6,19.6,0000.0,0013.06,0003.52,0002.59
2024-03-31 06:58:00,SystemResetWarning,0820.0,5.00,000.00,023.8,022.9,000.0,032.5,025.6,19.7,0000.0,0012.87,0003.53,0002.57
2024-03-31 06:59:00,SystemResetWarning,0820.0,5.01,000.00,023.8,022.9,000.0,032.4,025.6,19.7,0000.0,0012.27,0003.58,0002.59
